Weather in Saint Francois

Guadeloupe     16°19′34″N   61°25′41″W
temp.,
°C
wind,
m/s
gust,
m/s
humid.,
%
clouds,
%
prec.,
mm/h
press.,
hPa
HPBL,
m
20 june, sun
sun2023:00+26e5885100 2.4 1019519
02:00+25e588899 6.9 1018396
05:00+25e598999 13.8 1017338
08:00+26e71087100 30.2 1019507
11:00+27ese798299 6.1 1019866
14:00+28e6876100 7.8 10181036
17:00+27e6875100 0.2 1017949
20:00+25e59805 0.2 1019535
21 june, mon
mon2123:00+26e597495 0.1 1019543
02:00+25e6107772 0.3 1017533
05:00+26e597599 0.1 1017486
08:00+26e577691 0.3 1018637
11:00+29e786466 0.3 10191309
14:00+29e675942 0.3 10171291
17:00+28e67675 0.0 10161096
20:00+26e69743 0.4 1018660
22 june, tue
tue2223:00+25e587821 0.1 1018549
02:00+25e58765 0.3 1016491
05:00+25ese488027 0.2 1016420
08:00+27ese68708 0.9 10171222
11:00+28ese566643 0.6 10181146
14:00+28se446699 1.9 10171052
17:00+27e677412 2.3 1016920
20:00+25e588023 3.7 1018523
23 june, wed
wed2323:00+25e48775 0.3 1018435
02:00+24e478296 0.4 1016334
05:00+24e358598 0.1 1016234
08:00+26ese457625 1.1 1017746
11:00+28ese566833 1.1 10171228
14:00+29e566619 1.7 10161253
17:00+27e567334 1.0 1015952
20:00+25e46827 1.9 1016406
24 june, thu
thu2423:00+25e478324 1.3 1017388
02:00+25e468416 3.5 1015310
05:00+24ese478316 0.8 1015342
08:00+26ese577013 0.8 10161063
11:00+28ese56615 0.0 10161218
14:00+29ese56645 0.0 10141223
17:00+28ese567014 0.4 10141075
20:00+26e47805 0.7 1015485